2017-071E

Last updated on Wed Jan 17 2018 00:19:53 GMT+0000 (Coordinated Universal Time)

1 43041U 17071E 18016.54965549 .00003783 00000-0 10854-3 0 9993 2 43041 51.6401 59.5254 0000690 20.9900 339.1112 15.38391169 8550
UTC large
Height (km)
Speed (km/s)
/
Latitude / Longitude
Inclination (degrees)
Orbital Period (minutes)
Azimuth
Elevation
Range (km)
Doppler Factor

Next 0 passes for location: London (51.5072 / 0.1276)

Sorry there are no passes over London.